Temp
78 77 74 73 72 72 73 73 73 73 73 73 73 73 73 74 74 74 74 74 73 73 73 73 74 74 73 72 72 71 69 76
78 77 78 76 74 72 72 72 73 73 73 73 73 73 73 73 73 73 74 73 73 73 73 73 73 72 72 71 71 71 70 77
79 78 78 77 76 75 72 73 73 72 73 73 73 77 75 74 74 73 73 73 73 73 73 72 72 71 71 70 71 73 78 79
78 78 78 78 82 75 76 78 76 76 78 77 78 79 78 82 76 72 73 72 72 72 71 71 71 73 78 71 70 76 78 79
78 78 79 80 81 79 80 80 79 78 81 80 79 80 76 76 76 74 73 72 74 72 72 72 75 76 77 75 76 78 78 79
80 80 78 78 80 82 80 81 80 78 78 77 76 77 77 77 78 78 76 77 76 75 78 78 79 79 78 78 78 78 78 78
82 79 77 77 79 81 80 78 78 78 77 76 76 77 75 76 78 78 78 77 79 78 78 79 79 79 80 80 80 79 79 78
82 78 77 78 78 77 76 76 77 76 73 72 73 74 74 75 76 77 75 76 76 76 76 75 75 76 77 76 77 78 80 80
74 73 76 74 75 75 74 75 76 74 72 71 72 72 71 72 73 73 72 73 73 73 73 74 74 75 73 74 75 76 77 77
72 73 72 71 71 72 72 72 70 69 69 68 68 70 71 71 71 69 70 71 70 69 69 70 70 70 69 70 72 74 75 77
68 68 67 67 67 67 67 67 67 66 66 65 66 68 70 68 67 67 68 68 65 65 64 65 64 65 67 66 67 69 71 77
65 64 62 62 62 61 63 63 63 65 65 65 66 66 67 66 65 64 65 64 62 61 60 62 62 62 66 68 63 65 67 67
59 58 57 59 59 58 60 56 59 62 65 64 64 64 64 62 63 62 62 60 59 60 59 58 60 61 58 58 62 63 65 66
58 56 57 58 60 61 64 64 65 65 64 63 64 62 62 62 60 60 60 60 58 57 57 56 59 59 54 55 53 60 60 64
61 61 61 63 63 65 64 64 63 63 62 61 61 62 61 60 60 58 58 58 57 56 56 56 55 57 57 53 49 47 52 59
63 62 63 64 64 63 62 61 61 62 61 60 60 60 60 60 59 58 58 57 56 56 58 55 55 53 55 59 56 53 48 47
65 65 65 64 63 66 65 61 61 61 60 58 57 58 59 59 58 57 56 56 56 55 54 54 55 52 52 52 52 52 53 47
65 65 65 66 65 65 62 60 59 58 58 57 57 58 57 57 58 56 56 55 55 54 54 53 53 52 53 52 51 49 47 46
63 64 62 63 62 62 61 60 59 58 58 57 57 56 55 55 55 54 54 55 55 54 53 53 52 50 49 49 51 49 49 47
62 62 60 61 60 60 60 60 60 60 59 58 57 56 55 55 55 54 54 55 55 53 52 52 50 49 48 48 49 49 48 47
MSLP
1015.01 1015.71 1016.26 1016.57 1016.82 1017.07 1017.28 1017.50 1017.70 1017.79 1017.87 1017.94 1018.04 1018.11 1018.20 1018.40 1018.55 1018.60 1018.76 1018.86 1018.90 1018.96 1018.93 1018.93 1018.81 1018.71 1018.58 1018.40 1018.26 1017.83 1017.51 1017.11
1014.85 1015.57 1015.96 1016.35 1016.83 1017.12 1017.29 1017.45 1017.62 1017.77 1017.85 1017.89 1018.02 1018.13 1018.13 1018.26 1018.40 1018.60 1018.71 1018.82 1018.90 1018.98 1019.00 1018.84 1018.78 1018.66 1018.47 1018.37 1018.26 1018.07 1017.52 1016.78
1014.76 1015.24 1015.61 1016.06 1016.53 1017.08 1017.33 1017.38 1017.54 1017.67 1017.66 1017.65 1017.80 1017.64 1017.83 1018.15 1018.18 1018.40 1018.58 1018.67 1018.71 1018.74 1018.62 1018.63 1018.53 1018.40 1018.12 1018.15 1018.24 1017.87 1017.03 1016.49
1014.94 1015.08 1015.48 1015.83 1015.97 1016.55 1016.73 1016.90 1017.16 1017.26 1017.16 1016.95 1017.05 1017.03 1017.26 1017.48 1017.86 1018.07 1018.23 1018.26 1018.32 1018.40 1018.39 1018.24 1018.29 1018.00 1017.57 1017.66 1017.97 1017.38 1016.75 1016.43
1014.96 1015.11 1015.15 1015.27 1015.43 1015.78 1016.10 1016.22 1016.45 1016.60 1016.69 1016.94 1016.95 1016.96 1017.26 1017.26 1017.43 1017.78 1017.83 1017.84 1018.00 1018.08 1017.98 1017.95 1017.73 1017.49 1017.01 1017.32 1017.20 1016.78 1016.62 1016.26
1014.56 1015.06 1015.27 1015.13 1015.22 1014.94 1015.54 1015.66 1016.05 1016.47 1016.88 1017.11 1017.28 1017.07 1016.90 1016.81 1016.69 1016.99 1016.91 1016.87 1017.02 1017.07 1016.81 1017.07 1016.65 1016.59 1016.56 1016.55 1016.52 1016.54 1016.45 1016.24
1013.85 1014.75 1015.46 1015.46 1015.25 1015.11 1015.53 1016.02 1016.54 1016.69 1017.21 1017.62 1017.70 1017.29 1017.12 1016.95 1016.99 1016.77 1017.00 1016.66 1017.01 1016.99 1016.80 1016.74 1016.52 1016.36 1016.25 1016.18 1016.05 1016.06 1015.96 1015.90
1013.64 1014.68 1015.43 1015.66 1015.88 1015.59 1016.23 1016.67 1016.80 1017.39 1018.12 1018.57 1018.37 1018.10 1017.81 1017.69 1017.29 1017.34 1017.50 1017.43 1017.35 1017.27 1017.15 1017.01 1016.94 1016.72 1016.55 1016.48 1016.32 1016.20 1015.83 1015.75
1014.26 1015.11 1015.50 1016.00 1016.33 1016.35 1016.81 1017.09 1017.52 1018.11 1018.73 1019.13 1018.98 1018.83 1018.64 1018.36 1018.07 1018.15 1018.35 1018.19 1018.21 1018.08 1017.93 1017.67 1017.44 1017.12 1017.14 1016.79 1016.64 1016.36 1016.11 1015.93
1015.16 1015.72 1016.22 1016.71 1017.02 1017.11 1017.42 1017.92 1018.46 1019.00 1019.35 1019.67 1019.55 1019.25 1018.99 1018.73 1018.77 1019.16 1019.09 1018.75 1018.99 1019.06 1018.94 1018.61 1018.29 1017.96 1017.72 1017.40 1017.17 1016.75 1016.41 1016.06
1015.95 1016.54 1017.10 1017.54 1017.76 1018.03 1018.27 1018.74 1019.30 1019.83 1019.88 1019.98 1020.02 1019.80 1019.46 1019.42 1019.71 1019.77 1019.39 1019.49 1019.86 1020.02 1019.71 1019.33 1019.01 1018.73 1018.48 1018.08 1017.57 1017.19 1016.88 1016.59
1016.62 1017.23 1017.86 1018.13 1018.41 1018.91 1019.16 1019.59 1019.88 1019.99 1020.22 1020.35 1020.15 1020.13 1019.99 1019.86 1020.18 1020.25 1020.07 1020.37 1020.71 1020.63 1020.35 1019.74 1019.46 1019.48 1019.05 1018.24 1017.81 1017.55 1017.68 1017.42
1017.26 1017.85 1018.43 1018.62 1018.92 1019.25 1019.67 1019.96 1020.20 1020.09 1020.33 1020.55 1020.62 1020.50 1020.51 1020.58 1020.54 1020.70 1020.59 1020.98 1021.23 1021.18 1020.83 1020.49 1020.20 1019.97 1019.69 1018.80 1017.72 1018.31 1018.21 1018.20
1017.34 1017.92 1018.30 1018.54 1018.78 1018.89 1019.01 1019.38 1019.81 1020.21 1020.60 1020.89 1021.04 1020.93 1021.05 1021.06 1021.13 1021.33 1021.27 1021.41 1021.74 1021.74 1021.46 1021.27 1020.82 1020.67 1020.75 1019.87 1019.33 1018.64 1019.35 1019.12
1016.85 1017.53 1017.98 1018.16 1018.43 1018.64 1018.80 1019.50 1019.96 1020.20 1020.69 1021.21 1021.42 1021.41 1021.51 1021.66 1021.76 1021.81 1021.72 1022.00 1022.23 1022.19 1022.04 1021.94 1021.85 1021.47 1021.31 1021.44 1021.33 1021.51 1021.11 1019.79
1016.52 1017.18 1017.63 1018.00 1018.24 1018.72 1019.02 1019.25 1019.61 1020.11 1020.76 1021.49 1021.79 1021.87 1021.98 1022.13 1022.10 1022.14 1022.18 1022.53 1022.57 1022.75 1022.62 1022.65 1022.50 1022.56 1022.26 1022.12 1022.22 1022.37 1022.24 1021.64
1015.89 1016.60 1017.18 1017.65 1017.94 1018.00 1018.37 1019.01 1019.58 1020.27 1021.04 1021.68 1022.07 1022.16 1022.22 1022.37 1022.47 1022.63 1022.77 1022.96 1023.27 1023.37 1023.38 1023.40 1023.15 1023.27 1023.17 1023.13 1023.15 1023.11 1023.38 1023.47
1015.59 1016.15 1016.80 1017.30 1017.65 1017.97 1018.35 1019.07 1019.74 1020.48 1021.02 1021.37 1021.77 1022.25 1022.57 1022.67 1022.87 1023.25 1023.35 1023.58 1023.59 1023.58 1023.66 1023.80 1023.85 1023.97 1023.95 1024.11 1024.14 1024.47 1024.73 1024.75
1015.82 1016.39 1017.01 1017.50 1017.94 1018.36 1018.72 1019.24 1019.62 1020.28 1020.76 1021.26 1021.74 1022.33 1022.97 1023.21 1023.53 1023.84 1023.92 1023.81 1023.66 1023.90 1024.03 1024.25 1024.54 1024.83 1025.13 1025.06 1025.10 1025.36 1025.39 1025.46
1015.60 1016.39 1017.13 1017.72 1018.16 1018.71 1019.11 1019.57 1019.93 1020.25 1020.66 1021.20 1021.78 1022.50 1023.26 1023.50 1023.82 1024.12 1024.11 1023.89 1023.89 1024.28 1024.48 1024.74 1025.07 1025.46 1025.63 1025.70 1025.73 1025.94 1025.80 1025.90
Wind_Speed
10 10 11 11 11 10 10 9 8 8 8 8 8 8 8 8 8 8 7 5 5 4 4 4 4 5 6 7 9 13 8 7
12 10 9 9 8 9 9 9 9 8 7 6 7 7 10 10 9 7 5 4 3 2 4 4 6 8 10 10 11 12 9 9
9 10 10 9 9 7 7 7 7 8 7 8 8 6 8 11 8 9 8 6 6 7 7 9 10 11 14 12 10 6 8 4
7 8 9 9 9 10 8 8 6 6 5 6 4 2 4 7 9 12 11 12 11 10 11 12 9 7 7 12 5 8 4 5
8 4 5 9 7 8 6 5 5 4 4 2 3 2 4 4 4 5 5 10 5 7 8 7 8 6 2 5 5 4 4 4
14 10 3 4 2 3 6 4 3 2 5 7 6 2 3 3 0 7 7 4 7 8 5 8 7 5 7 7 6 4 4 2
9 13 4 1 4 1 6 6 6 5 6 6 5 5 4 5 1 4 2 4 7 6 4 5 4 4 4 4 5 5 6 3
8 14 7 6 3 9 7 4 5 7 8 7 9 7 6 7 6 7 8 7 6 6 8 6 5 6 7 7 6 6 5 6
12 9 7 8 6 7 6 5 6 6 5 5 5 5 5 6 5 6 6 6 7 6 6 7 6 5 5 6 6 7 6 6
10 9 8 8 6 6 6 6 6 5 4 6 8 7 6 5 6 6 5 4 6 6 5 6 6 5 5 5 6 6 7 7
11 10 9 8 8 6 8 6 5 4 3 4 5 6 7 6 6 4 5 5 6 6 5 4 5 5 7 6 6 5 6 8
10 8 8 8 6 7 7 5 4 4 4 4 6 5 7 5 4 5 5 6 6 6 6 5 3 6 8 7 6 4 5 5
9 10 8 6 5 5 4 4 3 5 4 5 7 6 7 7 4 6 5 6 6 7 5 7 5 7 5 5 4 8 10 7
11 10 9 6 4 4 4 6 4 6 5 5 6 7 7 7 7 5 7 5 6 6 6 5 4 5 4 4 5 3 11 8
13 11 9 5 6 6 5 6 4 5 6 5 5 6 7 6 6 5 6 5 4 5 7 7 5 5 8 4 4 4 7 4
13 12 10 8 9 8 10 8 6 5 6 6 5 6 6 6 6 6 6 5 7 7 7 4 6 6 4 6 6 3 3 5
14 14 12 11 10 8 5 9 6 5 6 7 7 5 7 7 7 7 7 5 6 5 6 7 6 5 4 5 6 5 7 4
8 9 8 6 5 6 8 8 8 6 6 5 5 5 5 6 7 6 6 5 4 5 6 8 7 7 7 7 6 6 7 5
9 11 9 8 6 7 7 7 8 8 6 5 6 6 5 6 6 6 4 4 5 7 6 8 6 9 8 5 6 6 5 5
12 12 11 10 8 8 7 8 5 4 6 5 5 6 5 6 5 6 5 6 6 7 5 6 6 5 7 6 5 6 5 4
Wind_Direction
132 127 118 109 112 112 111 108 107 106 110 121 130 135 128 124 117 108 108 115 129 148 173 200 233 267 275 281 287 294 301 292
133 130 138 137 136 125 129 134 139 142 150 161 160 166 164 151 137 128 127 137 161 208 244 276 279 280 274 266 266 278 271 273
138 156 152 144 134 139 151 165 168 165 176 194 185 204 180 162 136 152 167 186 204 218 228 240 247 255 254 250 260 261 272 307
150 147 149 166 154 159 179 176 180 201 199 197 204 104 85 135 167 175 184 201 208 221 228 233 244 254 264 220 235 255 279 283
152 119 184 186 172 177 177 183 173 175 147 26 66 60 194 193 180 180 195 214 209 214 225 230 228 228 333 190 224 325 303 305
157 155 228 351 241 160 153 125 94 112 79 22 343 294 223 250 196 176 197 181 206 195 206 211 215 231 231 226 229 233 252 292
147 138 134 316 301 192 61 53 66 51 65 44 359 336 0 2 284 6 51 27 23 357 346 347 315 267 296 274 251 249 248 248
159 122 126 199 19 65 75 70 63 59 49 24 2 357 10 346 2 30 20 18 360 353 355 346 342 348 343 336 325 325 327 321
87 84 100 83 86 69 66 45 58 57 79 43 33 33 352 329 21 26 17 356 5 357 352 341 346 349 340 339 327 337 328 293
93 94 86 68 66 80 86 46 56 56 59 42 7 15 10 28 37 32 331 10 36 355 6 342 345 333 357 337 332 318 308 308
111 105 100 94 80 78 82 91 86 95 85 64 49 29 11 54 36 6 355 27 40 4 354 358 337 9 341 318 295 312 343 25
110 101 98 91 78 65 72 81 85 75 74 61 36 38 22 31 53 25 45 39 34 7 351 343 11 16 324 329 305 317 28 14
124 128 129 124 115 116 113 110 134 118 91 59 56 37 46 24 50 31 27 61 31 18 350 345 25 8 353 319 295 73 31 34
139 139 146 157 153 172 172 147 120 91 87 70 66 61 38 55 35 46 21 55 41 28 9 356 22 25 358 305 6 347 16 17
150 151 156 157 121 106 93 103 138 139 119 84 68 68 65 53 58 39 55 40 41 47 11 33 356 12 42 47 14 6 323 8
151 155 164 151 163 148 159 161 154 100 96 101 78 73 64 67 53 51 54 58 36 37 23 17 18 26 21 23 36 8 354 336
155 160 159 166 191 176 174 96 115 102 101 109 111 83 73 67 56 41 56 45 60 47 48 27 39 31 23 22 21 9 23 5
139 144 135 137 117 132 113 134 126 132 150 131 108 96 79 64 76 61 51 53 61 45 56 49 38 42 27 22 24 32 16 14
151 144 144 133 133 112 114 122 120 115 136 128 128 109 89 74 74 59 65 67 51 66 46 57 37 54 38 16 37 39 26 18
162 152 146 146 137 133 124 126 144 129 112 103 94 95 99 101 94 84 69 52 68 70 46 62 49 63 48 26 45 32 26 30